This is the latest recevied weather packets stored in our database for station/object KI6AOK. If no packets are shown the sender has not sent any weather packets the latest 10 day(s).
| Time | Temp. | Humidity | Pressure | Rain* | Wind** | Luminosity | Snow |
|---|---|---|---|---|---|---|---|
| 1777560066 | 13.89° C | 79% | 1013.1 hPa | 0 mm | - | 92 W/m² | - |
| 1777559761 | 13.89° C | 79% | 1013.2 hPa | 0 mm | - | 82 W/m² | - |
| 1777559458 | 13.89° C | 79% | 1013.1 hPa | 0 mm | - | 69 W/m² | - |
| 1777559156 | 13.89° C | 79% | 1013 hPa | 0 mm | - | 65 W/m² | - |
| 1777558856 | 13.89° C | 80% | 1013.1 hPa | 0 mm | - | 65 W/m² | - |
| 1777558551 | 13.89° C | 81% | 1013.1 hPa | 0 mm | - | 66 W/m² | - |
| 1777558248 | 13.89° C | 81% | 1013.1 hPa | 0 mm | - | 67 W/m² | - |
| 1777557944 | 13.89° C | 82% | 1013.3 hPa | 0 mm | - | 62 W/m² | - |
| 1777557641 | 13.33° C | 83% | 1013 hPa | 0 mm | - | 56 W/m² | - |
| 1777557337 | 13.33° C | 84% | 1013.1 hPa | 0 mm | - | 51 W/m² | - |
| 1777557033 | 13.33° C | 84% | 1013.2 hPa | 0 mm | - | 39 W/m² | - |
| 1777556729 | 12.78° C | 85% | 1013.2 hPa | 0 mm | - | 30 W/m² | - |
| 1777556426 | 12.78° C | 85% | 1013.1 hPa | 0 mm | - | 29 W/m² | - |
| 1777556126 | 12.78° C | 86% | 1013.2 hPa | 0 mm | - | 26 W/m² | - |
| 1777555822 | 12.78° C | 86% | 1013.1 hPa | 0 mm | - | 20 W/m² | - |
| 1777555517 | 12.78° C | 86% | 1013.2 hPa | 0 mm | - | 14 W/m² | - |
| 1777555214 | 12.78° C | 86% | 1013 hPa | 0 mm | - | 10 W/m² | - |
| 1777554911 | 12.78° C | 86% | 1013.2 hPa | 0 mm | - | 8 W/m² | - |
| 1777554608 | 12.78° C | 86% | 1013.1 hPa | 0 mm | - | 5 W/m² | - |
| 1777554304 | 12.78° C | 86% | 1013.1 hPa | 0 mm | - | 3 W/m² | - |
| 1777554001 | 12.78° C | 86% | 1013.1 hPa | 0 mm | - | 2 W/m² | - |
| 1777553698 | 12.78° C | 87% | 1013 hPa | 0 mm | - | 1 W/m² | - |
| 1777553395 | 12.22° C | 89% | 1013 hPa | 0 mm | - | 0 W/m² | - |
| 1777553091 | 11.67° C | 90% | 1013.2 hPa | 0 mm | - | 0 W/m² | - |
| 1777552790 | 11.67° C | 89% | 1013 hPa | 0 mm | - | 0 W/m² | - |
* Rain latest hour (hover to see other rain measurements)
** Current wind speed in m/s (hover to see current wind gust speed)